Weather History for KLRF - August, 2014

Change the Weather History Date:

Sunday, August 17, 2014

  Actual Average Record
Temperature  
Mean Temperature 84 °F -  
Max Temperature 94 °F 90 °F 105 °F (1999)
Min Temperature 73 °F 68 °F 54 °F (1992)
Cooling Degree Days 18    
Growing Degree Days 34 (Base 50)    
Moisture  
Dew Point 73 °F    
Average Humidity 78    
Maximum Humidity 99    
Minimum Humidity 55    
Precipitation  
Precipitation 0.23 in - - ()
Sea Level Pressure  
Sea Level Pressure 29.90 in    
Wind  
Wind Speed 9 mph (SW)    
Max Wind Speed 40 mph    
Max Gust Speed 50 mph    
Visibility 9 miles    
Events Rain , Thunderstorm    
Averages and records for this station are not official NWS values.
T = Trace of Precipitation, MM = Missing Value Source: NWS Daily Summary

Daily Weather History Graph

Daily Weather History Graph

Search for Another Location

Airport or City:

Trip Planner

Search our weather history database for the weather conditions in past years. The results will help you decide how hot, cold, wet, or windy it might be!

Date:

Astronomy

Aug. 17, 2014 Rise Set
Actual Time 6:30 AM CDT 7:54 PM CDT
Civil Twilight 6:03 AM CDT 8:20 PM CDT
Nautical Twilight 5:31 AM CDT 8:52 PM CDT
Astronomical Twilight 4:58 AM CDT 9:26 PM CDT
Moon No Moon Rise 1:57 PM CDT (8/17)
Length of Visible Light 14h 17m
Length of Day
13h 24m
Waning Gibbous, 48% of the Moon is Illuminated
Aug 17
Waning Gibbous
Aug 25
New
Sep 2
First Quarter
Sep 8
Full
Sep 15
Last Quarter

Hourly Weather History & Observations

Time (CDT) Temp. Heat Index Dew Point Humidity Pressure Visibility Wind Dir Wind Speed Gust Speed Precip Events Conditions
12:58 AM 82.4 °F 89.0 °F 74.7 °F 77% 29.91 in 10.0 mi South 5.8 mph - N/A   Mostly Cloudy
1:58 AM 82.0 °F 88.4 °F 74.7 °F 78% 29.90 in 10.0 mi South 4.6 mph - N/A   Overcast
2:58 AM 81.3 °F 87.2 °F 74.7 °F 80% 29.89 in 10.0 mi South 8.1 mph - N/A   Mostly Cloudy
3:58 AM 80.8 °F 86.3 °F 74.8 °F 82% 29.89 in 10.0 mi SW 4.6 mph - N/A   Mostly Cloudy
4:58 AM 79.3 °F - 73.8 °F 83% 29.89 in 10.0 mi SSW 4.6 mph - N/A   Partly Cloudy
5:58 AM 79.5 °F - 72.7 °F 79% 29.91 in 10.0 mi SW 6.9 mph - N/A   Partly Cloudy
6:58 AM 77.0 °F - 72.3 °F 85% 29.92 in 10.0 mi WSW 3.5 mph - N/A   Clear
7:58 AM 81.1 °F 86.2 °F 73.4 °F 77% 29.94 in 10.0 mi SW 5.8 mph - N/A   Partly Cloudy
8:58 AM 83.5 °F 89.7 °F 73.2 °F 71% 29.93 in 10.0 mi SW 8.1 mph - N/A   Partly Cloudy
9:58 AM 84.0 °F 91.2 °F 73.9 °F 72% 29.93 in 10.0 mi WSW 10.4 mph - N/A   Partly Cloudy
10:58 AM 87.8 °F 97.1 °F 74.8 °F 65% 29.93 in 10.0 mi SW 10.4 mph - N/A   Clear
11:58 AM 90.5 °F 99.7 °F 73.8 °F 58% 29.93 in 10.0 mi WSW 10.4 mph - N/A   Partly Cloudy
12:58 PM 93.4 °F 104.8 °F 75.0 °F 55% 29.92 in 10.0 mi West 8.1 mph - N/A   Clear
1:15 PM 93.2 °F 105.0 °F 75.2 °F 56% 29.92 in 10.0 mi WSW 10.4 mph - N/A Thunderstorm Thunderstorm
1:30 PM 89.6 °F 99.8 °F 75.2 °F 62% 29.92 in 10.0 mi West 8.1 mph - N/A Thunderstorm Partly Cloudy
1:35 PM 89.6 °F 98.2 °F 73.4 °F 59% 29.93 in 10.0 mi WSW 27.6 mph 39.1 mph N/A Thunderstorm Thunderstorm
1:37 PM 87.8 °F 93.8 °F 71.6 °F 58% 29.93 in 5.0 mi SW 40.3 mph 49.5 mph N/A Rain , Thunderstorm Light Thunderstorms and Rain
2:33 PM 77.0 °F - 71.6 °F 83% 29.92 in 4.0 mi WSW 11.5 mph - N/A Rain Light Rain
2:58 PM 76.8 °F - 71.4 °F 83% 29.92 in 10.0 mi WSW 15.0 mph 19.6 mph 0.10 in Thunderstorm Light Drizzle
3:08 PM 77.0 °F - 69.8 °F 78% 29.92 in 10.0 mi West 13.8 mph 26.5 mph N/A Rain , Thunderstorm Light Rain
3:13 PM 77.0 °F - 69.8 °F 78% 29.92 in 7.0 mi West 16.1 mph - N/A Rain , Thunderstorm Light Rain
3:24 PM 77.0 °F - 69.8 °F 78% 29.91 in 9.0 mi WSW 9.2 mph - N/A Rain , Thunderstorm Light Thunderstorms and Rain
3:39 PM 77.0 °F - 71.6 °F 83% 29.89 in 10.0 mi WSW 10.4 mph - N/A   Light Drizzle
3:58 PM 76.8 °F - 71.6 °F 84% 29.88 in 7.0 mi SW 6.9 mph - 0.06 in Rain Light Rain
4:10 PM 77.0 °F - 73.4 °F 89% 29.88 in 10.0 mi SW 19.6 mph 21.9 mph N/A   Mostly Cloudy
4:31 PM 77.0 °F - 71.6 °F 83% 29.88 in 10.0 mi WSW 12.7 mph - N/A Thunderstorm Light Drizzle
4:39 PM 75.2 °F - 69.8 °F 83% 29.89 in 1.5 mi WSW 13.8 mph 20.7 mph N/A Rain Rain
4:49 PM 75.2 °F - 69.8 °F 83% 29.87 in 6.0 mi South 4.6 mph - N/A Rain Light Rain
4:56 PM 75.2 °F - 71.6 °F 89% 29.88 in 10.0 mi WSW 6.9 mph - N/A   Mostly Cloudy
4:58 PM 75.0 °F - 70.7 °F 86% 29.88 in 10.0 mi WSW 6.9 mph - 0.07 in   Mostly Cloudy
5:58 PM 81.0 °F 86.9 °F 75.2 °F 83% 29.88 in 10.0 mi WSW 3.5 mph - N/A   Clear
6:37 PM 80.6 °F 83.9 °F 69.8 °F 70% 29.88 in 10.0 mi SSW 16.1 mph 25.3 mph N/A Rain Light Rain
6:42 PM 78.8 °F - 69.8 °F 74% 29.88 in 10.0 mi SSW 16.1 mph - N/A Rain Light Rain
6:58 PM 78.8 °F - 69.8 °F 74% 29.88 in 10.0 mi SSW 6.9 mph - 0.00 in   Light Drizzle
7:01 PM - - - N/A% - - Variable 4.6 mph - N/A   Unknown
7:02 PM 78.8 °F - 71.6 °F 78% 29.88 in 10.0 mi West 4.6 mph - N/A   Partly Cloudy
7:58 PM 78.1 °F - 73.9 °F 87% 29.87 in 10.0 mi West 3.5 mph - 0.00 in   Clear
8:58 PM 75.6 °F - 73.4 °F 93% 29.88 in 9.0 mi Calm Calm - N/A   Clear
9:58 PM 74.3 °F - 73.6 °F 98% 29.91 in 10.0 mi ENE 2.3 mph - N/A   Partly Cloudy
10:58 PM 74.1 °F - 73.4 °F 98% 29.92 in 10.0 mi ENE 1.2 mph - N/A   Mostly Cloudy
11:58 PM 73.4 °F - 73.0 °F 99% 29.91 in 10.0 mi Calm Calm - N/A   Clear